OpenBCM V1.08-5-g2f4a (Linux)

Packet Radio Mailbox

IZ3LSV

[San Dona' di P. JN]

 Login: GUEST





  
CX2SA  > KEPS     07.11.14 01:15l 360 Lines 9466 Bytes #999 (0) @ WW
BID : ORB14310.D
Read: GUEST
Subj: Orbital Elements  14310.MICROS
Path: IZ3LSV<IQ5KG<IK1NHL<CX2SA
Sent: 141107/0012Z @:CX2SA.SAL.URY.SOAM #:12124 [Salto] FBB7.00e $:ORB14310.D
From: CX2SA@CX2SA.SAL.URY.SOAM
To  : KEPS@AMSAT


HR AMSAT ORBITAL ELEMENTS FOR THE MICROSATS
FROM WA5QGD FORT WORTH,TX November 6, 2014
BID: ORB14310.D
TO ALL RADIO AMATEURS BT

Satellite: UO-11
Catalog number: 14781
Epoch time:      14310.11653863
Element set:     656
Inclination:      097.8344 deg
RA of node:       007.3568 deg
Eccentricity:    0.0009960
Arg of perigee:   082.8507 deg
Mean anomaly:     277.3838 deg
Mean motion:   14.81869047 rev/day
Decay rate:       8.07e-06 rev/day^2
Epoch rev:           64898
Checksum:              346

Satellite: AO-16
Catalog number: 20439
Epoch time:      14308.45222940
Element set:     164
Inclination:      098.5196 deg
RA of node:       243.2153 deg
Eccentricity:    0.0012077
Arg of perigee:   104.6445 deg
Mean anomaly:     032.4863 deg
Mean motion:   14.32418117 rev/day
Decay rate:       1.74e-06 rev/day^2
Epoch rev:           29456
Checksum:              285

Satellite: LO-19
Catalog number: 20442
Epoch time:      14310.41746317
Element set:     101
Inclination:      098.4910 deg
RA of node:       245.3732 deg
Eccentricity:    0.0013060
Arg of perigee:   088.9007 deg
Mean anomaly:     271.3673 deg
Mean motion:   14.32617976 rev/day
Decay rate:       1.98e-06 rev/day^2
Epoch rev:           29504
Checksum:              288

Satellite: AO-27
Catalog number: 22825
Epoch time:      14310.11681954
Element set:     813
Inclination:      098.6799 deg
RA of node:       255.5457 deg
Eccentricity:    0.0007532
Arg of perigee:   236.7891 deg
Mean anomaly:     189.8787 deg
Mean motion:   14.29774529 rev/day
Decay rate:       1.59e-06 rev/day^2
Epoch rev:           10106
Checksum:              349

Satellite: IO-26
Catalog number: 22826
Epoch time:      14309.43949021
Element set:     570
Inclination:      098.6739 deg
RA of node:       255.0684 deg
Eccentricity:    0.0008159
Arg of perigee:   231.0175 deg
Mean anomaly:     129.0281 deg
Mean motion:   14.30080185 rev/day
Decay rate:       1.54e-06 rev/day^2
Epoch rev:           10110
Checksum:              279

Satellite: GO-32
Catalog number: 25397
Epoch time:      14309.86795181
Element set:     491
Inclination:      098.4893 deg
RA of node:       262.7001 deg
Eccentricity:    0.0000472
Arg of perigee:   184.0232 deg
Mean anomaly:     233.2958 deg
Mean motion:   14.23478722 rev/day
Decay rate:        8.6e-07 rev/day^2
Epoch rev:           84802
Checksum:              318

Satellite: NO-44
Catalog number: 26931
Epoch time:      14309.52115608
Element set:     745
Inclination:      067.0535 deg
RA of node:       033.9850 deg
Eccentricity:    0.0007586
Arg of perigee:   273.1110 deg
Mean anomaly:     086.9123 deg
Mean motion:   14.30183401 rev/day
Decay rate:       1.40e-06 rev/day^2
Epoch rev:           68381
Checksum:              280

Satellite: SO-50
Catalog number: 27607
Epoch time:      14310.63967075
Element set:     569
Inclination:      064.5555 deg
RA of node:       158.0158 deg
Eccentricity:    0.0064058
Arg of perigee:   333.8617 deg
Mean anomaly:     025.9755 deg
Mean motion:   14.74091982 rev/day
Decay rate:      1.334e-05 rev/day^2
Epoch rev:           63847
Checksum:              337

Satellite: CO-55
Catalog number: 27844
Epoch time:      14309.54666896
Element set:      63
Inclination:      098.6981 deg
RA of node:       316.2889 deg
Eccentricity:    0.0009164
Arg of perigee:   221.6773 deg
Mean anomaly:     252.4882 deg
Mean motion:   14.21605263 rev/day
Decay rate:       2.56e-06 rev/day^2
Epoch rev:           58866
Checksum:              354

Satellite: CO-57
Catalog number: 27848
Epoch time:      14310.56997644
Element set:       6
Inclination:      098.7077 deg
RA of node:       317.0860 deg
Eccentricity:    0.0009028
Arg of perigee:   225.5599 deg
Mean anomaly:     255.1211 deg
Mean motion:   14.21280577 rev/day
Decay rate:       2.63e-06 rev/day^2
Epoch rev:           58872
Checksum:              330

Satellite: AO-51
Catalog number: 28375
Epoch time:      14310.44004906
Element set:     986
Inclination:      098.2675 deg
RA of node:       252.6150 deg
Eccentricity:    0.0081646
Arg of perigee:   282.5501 deg
Mean anomaly:     076.6565 deg
Mean motion:   14.41486239 rev/day
Decay rate:       3.27e-06 rev/day^2
Epoch rev:           54439
Checksum:              320

Satellite: CP3
Catalog number: 31129
Epoch time:      14310.47389398
Element set:     892
Inclination:      097.9519 deg
RA of node:       281.3984 deg
Eccentricity:    0.0096332
Arg of perigee:   288.0541 deg
Mean anomaly:     187.7815 deg
Mean motion:   14.55086743 rev/day
Decay rate:      1.637e-05 rev/day^2
Epoch rev:           40072
Checksum:              342

Satellite: CO-65
Catalog number: 32785
Epoch time:      14309.81855133
Element set:     109
Inclination:      097.6816 deg
RA of node:       356.3583 deg
Eccentricity:    0.0015150
Arg of perigee:   084.9533 deg
Mean anomaly:     329.8684 deg
Mean motion:   14.85802864 rev/day
Decay rate:      1.915e-05 rev/day^2
Epoch rev:           35305
Checksum:              338

Satellite: PRISM
Catalog number: 33493
Epoch time:      14310.79275102
Element set:     459
Inclination:      098.2513 deg
RA of node:       132.6695 deg
Eccentricity:    0.0017232
Arg of perigee:   342.3044 deg
Mean anomaly:     017.7588 deg
Mean motion:   14.90631344 rev/day
Decay rate:      5.857e-05 rev/day^2
Epoch rev:           31341
Checksum:              293

Satellite: SOHLA-1
Catalog number: 33496
Epoch time:      14310.42872815
Element set:     508
Inclination:      098.1871 deg
RA of node:       071.8637 deg
Eccentricity:    0.0007311
Arg of perigee:   144.6077 deg
Mean anomaly:     255.6633 deg
Mean motion:   14.70991318 rev/day
Decay rate:       6.75e-06 rev/day^2
Epoch rev:           31042
Checksum:              303

Satellite: TISAT-1
Catalog number: 36799
Epoch time:      14310.23974392
Element set:     701
Inclination:      098.0193 deg
RA of node:       043.3651 deg
Eccentricity:    0.0013053
Arg of perigee:   213.9128 deg
Mean anomaly:     198.7866 deg
Mean motion:   14.86538892 rev/day
Decay rate:      3.786e-05 rev/day^2
Epoch rev:           23381
Checksum:              330

Satellite: STUDSAT
Catalog number: 36801
Epoch time:      14310.19678177
Element set:     926
Inclination:      098.0476 deg
RA of node:       054.4485 deg
Eccentricity:    0.0006477
Arg of perigee:   180.7839 deg
Mean anomaly:     239.5232 deg
Mean motion:   15.00649307 rev/day
Decay rate:     2.0931e-04 rev/day^2
Epoch rev:           23439
Checksum:              318

Satellite: ALMASAT-1
Catalog number: 38078
Epoch time:      14309.75811045
Element set:     203
Inclination:      069.4663 deg
RA of node:       075.8661 deg
Eccentricity:    0.0560566
Arg of perigee:   203.2215 deg
Mean anomaly:     154.2942 deg
Mean motion:   14.58718050 rev/day
Decay rate:     7.2286e-04 rev/day^2
Epoch rev:           14221
Checksum:              299

Satellite: XATCOBEO
Catalog number: 38082
Epoch time:      14243.34478676
Element set:     563
Inclination:      069.3815 deg
RA of node:       097.0364 deg
Eccentricity:    0.0033293
Arg of perigee:   225.1799 deg
Mean anomaly:     135.4582 deg
Mean motion:   16.41261006 rev/day
Decay rate:  1.3583328e-01 rev/day^2
Epoch rev:           13623
Checksum:              317

Satellite: CUBEBUG-1
Catalog number: 39153
Epoch time:      14310.46967806
Element set:     623
Inclination:      098.0348 deg
RA of node:       030.4518 deg
Eccentricity:    0.0016659
Arg of perigee:   250.3276 deg
Mean anomaly:     109.6138 deg
Mean motion:   14.78185515 rev/day
Decay rate:      2.457e-05 rev/day^2
Epoch rev:            8256
Checksum:              314

Satellite: ESTCUBE-1
Catalog number: 39161
Epoch time:      14310.81136781
Element set:     636
Inclination:      098.0874 deg
RA of node:       030.6189 deg
Eccentricity:    0.0008827
Arg of perigee:   308.8080 deg
Mean anomaly:     051.2321 deg
Mean motion:   14.70366966 rev/day
Decay rate:      1.941e-05 rev/day^2
Epoch rev:            8055
Checksum:              299

Satellite: DUCHIFAT-1
Catalog number: 40021
Epoch time:      14310.67328856
Element set:     415
Inclination:      097.9696 deg
RA of node:       205.6064 deg
Eccentricity:    0.0012986
Arg of perigee:   189.0731 deg
Mean anomaly:     171.0306 deg
Mean motion:   14.86106504 rev/day
Decay rate:      4.452e-05 rev/day^2
Epoch rev:            2073
Checksum:              285

Satellite: NANOSATCBR1
Catalog number: 40024
Epoch time:      14310.68443210
Element set:     406
Inclination:      097.9692 deg
RA of node:       205.5644 deg
Eccentricity:    0.0012319
Arg of perigee:   187.9374 deg
Mean anomaly:     172.1690 deg
Mean motion:   14.85930602 rev/day
Decay rate:      4.003e-05 rev/day^2
Epoch rev:            2073
Checksum:              272

Satellite: DTUSAT-2
Catalog number: 40030
Epoch time:      14310.65693968
Element set:     405
Inclination:      097.9647 deg
RA of node:       205.4272 deg
Eccentricity:    0.0012164
Arg of perigee:   178.5648 deg
Mean anomaly:     181.5551 deg
Mean motion:   14.85417838 rev/day
Decay rate:      3.276e-05 rev/day^2
Epoch rev:            2073
Checksum:              310

Satellite: ANTELSAT
Catalog number: 40034
Epoch time:      14310.66497177
Element set:     413
Inclination:      097.9610 deg
RA of node:       202.4178 deg
Eccentricity:    0.0062271
Arg of perigee:   111.2840 deg
Mean anomaly:     249.5069 deg
Mean motion:   14.71635886 rev/day
Decay rate:      2.417e-05 rev/day^2
Epoch rev:            2055
Checksum:              284



Read previous mail | Read next mail


 22.12.2024 11:20:07lGo back Go up